星链-1134 (STARLINK-1134 )

导读

STARLINK-1134是美国SpaceX公司星链(Starlink)星座的一员,于2020年1月29日发射升空。星链项目旨在构建全球卫星互联网系统,为全球提供高速低延迟网络服务。 作为低轨通信卫星,STARLINK-1134运行在近地轨道,依托相控阵天线技术,可与地面终端及其他卫星组网通信,助力实现全球覆盖,为偏远地区等场景提供互联网接入服务。

基本信息
目录编号:
45048
目录名称:
STARLINK-1134
国际标识:
2020-006E
轨道中心:
EARTH
卫星名称:
星链-1134
卫星全名:
星链-1134 (STARLINK-1134 )
卫星状态:
在轨 (已飞行2420 天)
发射日期:
2020-01-29 UTC
国别 :
美国 (US)
星等 :
--
该卫星已列入 空间交会检测服务 Space Conjunction Data Service (SCDS) ,当前飞行风险评估等级: 无高风险
轨道信息
数据来源 国际轨道数据
星历时间: 2026-09-14T04:16:41+0800
6小时前
查看轨道信息
半长轴: 6740.043km
偏心率: 0.0005085
轨道倾角: 53.020°
近地点辐角 60.154°
升交点赤经 44.812°
平近点角 299.999°
近地点: 358.478km
远地点: 365.334km
周期: 91.781分钟
每日圈数: 15.689488
详细信息
固有亮度:
5
最大亮度:
2.5
卫星平台:
Starlink V1.0
覆盖范围:
全球
运营商:
太空探索技术公司
运营商所在国:
美国
制造商(研发单位):
太空探索技术公司
制造商所在国:
美国
使用方式:
暂无
卫星简介
星链(Starlink)计划是由太空探索技术公司(SpaceX)提出的一个巨型低轨卫星互联网星座项目,计划在2019年至2024年间在太空搭建由约1.2万颗卫星组成的“星链”网络,其中1584颗将部署在地球上空550千米处的近地轨道,并从2020年开始工作。该卫星仍在工作。
2D轨道图
3D轨道图
轨道高度分析图
轨道倾角分析图
轨道综合分析图
查看轨道综合分析图
交会数据列表
事件ID 空间交会对象 最接近时刻(TCA) 交会距离 交会风险概率(CRP) 交会风险指数(CRI) 操作
CDM_260913-191104-504805-994522
2026-09-13T
19:11:00+0000
2.654 km
极远距离
2.635553E-7 极低风险 0.23
与全量物体交会距离演化趋势 订阅飞行安全评估服务
与全量物体交会风险概率演化趋势 订阅飞行安全评估服务